www.pogodaiklimat.ru

Погода и климат >> Архив погоды >> Россия >> Чукотка >> Остров Врангеля


ПОГОДА на Острове Врангеля

АРХИВ ПОГОДЫ на Острове Врангеля

Время (UTC), дата Ветер
(напр.,м/с)
 
Видим.   Явления Облачность Т
(С)
Тd
(С)
f
(%)
Тe
(С)
Тes
(С)
Комфортность P
(гПа)
Po
(гПа)
Тmin
(С)
Tmax
(С)
R
(мм)
R24
(мм)
S
(см)
21 12.09 СЗ 5
{8}
20 км 8/8 600 м
[Sc]
+1.8 -0.1 87 -4 -4 996.9 994.3
00 13.09 С 7
{11}
20 км 9/9 600 м
[Sc]
+3.8 +1.1 83 -2 -2 997.1 994.5
03 13.09 З 4
{12}
20 км 9/9 600 м
[Sc]
+3.0 +0.7 85 -2 -2 997.3 994.7
06 13.09 С 8-10
{12}
20 км 9/9 600 м
[Sc]
+1.5 -0.3 88 -6 -6 996.9 994.3 +4.1
09 13.09 С 9-12
{12}
20 км {ливн. осадки} 9/9 600 м
[Cb cap]
+1.5 -0.5 87 -6 -6 997.1 994.5
12 13.09 СЗ 9-12
{12}
4000 м слабый ливневой снег 9/9 600 м
[Cb cap]
+1.2 -0.5 88 -6 -6 997.0 994.4
15 13.09 С 8-11
{13}
4000 м слабый ливневой снег 10/10 600 м
[Cb cap]
+1.0 -0.5 90 -6 -6 996.0 993.4
18 13.09 СЗ 7-10
{11}
20 км в посл. час ливневой снег 9/9 600 м
[Sc]
+1.1 -0.7 88 -6 -6 995.2 992.6 +0.9 1
21 13.09 С 10-11
{14}
4000 м слабый ливневой снег 10/10 300 м
[Cb cap]
+1.5 -0.3 88 -6 -6 995.1 992.5
00 14.09 С 8-12
{14}
4000 м слабый ливневой снег 10/10 600 м
[Cb cap]
+1.8 -0.2 87 -5 -5 996.0 993.4
03 14.09 СЗ 8-12
{13}
20 км {ливн. осадки} 10/10 600 м
[Sc]
+1.6 -0.5 86 -5 -5 995.8 993.2
06 14.09 С 9-13
{13}
20 км {ливн. осадки} 10/10 600 м
[Sc]
+1.3 -0.8 86 -6 -6 995.8 993.2 +1.8 0.4
09 14.09 С 8-11
{13}
20 км 10/10 600 м
[Sc]
+1.0 -0.6 89 -6 -6 996.9 994.3
12 14.09 СЗ 7
{11}
20 км 9/6 600 м
[Sc Ac trans]
+0.9 -1.0 87 -6 -6 997.1 994.5
15 14.09 штиль 0
{9}
20 км 10/10 600 м
[Sc]
+0.5 -1.4 87 -1 -1 997.2 994.6
18 14.09 СВ 3
{4}
20 км 9/8 600 м
[Sc Ac trans]
+0.1 -1.2 91 -5 -5 997.0 994.4 -0.3
21 14.09 В 4
{5}
20 км {ливн. осадки} 9/9 600 м
[Sc]
+1.8 +0.5 91 -3 -3 996.5 993.9
00 15.09 В 5
{8}
20 км {ливн. осадки} 10/10 600 м
[Sc]
+2.3 +0.5 88 -3 -3 995.6 993.0
03 15.09 Ю 5
{12}
20 км 10/10 600 м
[Sc]
+1.9 +0.5 90 -4 -4 995.0 992.5
06 15.09 Ю 5
{8}
20 км 10/10 600 м
[Sc]
+1.4 +0.5 94 -5 -5 995.5 992.9 +2.8 1
09 15.09 Ю 4
{7}
20 км 9/8 600 м
[Sc Ac trans]
+1.5 +0.1 90 -4 -4 996.2 993.6
12 15.09 ЮВ 7
{9}
20 км 9/9 600 м
[Sc]
+1.3 -0.1 90 -6 -6 996.6 994.0
15 15.09 ЮВ 8-11
{11}
4000 м слабый ливневой снег 10/10 300 м
[Cb cap]
+1.0 -0.1 92 -6 -6 996.2 993.5
18 15.09 Ю 4
{13}
20 км {ливн. осадки} 10/10 300 м
[Sc]
+1.6 -0.5 86 -3 -3 996.8 994.2 +0.7 0.9
21 15.09 Ю 7
{9}
20 км 9/9 600 м
[Sc]
+1.9 +0.1 88 -5 -5 998.0 995.3
00 16.09 Ю 6
{10}
20 км в посл. час ливневой снег 9/9 300 м
[Cb cap]
+2.5 +0.6 87 -3 -3 998.4 995.8
03 16.09 ЮЗ 6
{10}
20 км {ливн. осадки} 9/9 300 м
[Sc]
+2.1 +0.2 87 -4 -4 999.2 996.6
06 16.09 ЮЗ 6
{10}
20 км в посл. час ливневой дождь 10/10 300 м
[Cb cap]
+1.6 +0.2 90 -5 -5 1000.0 997.4 +2.7 0.6
09 16.09 ЮЗ 5
{10}
20 км 3/3 600 м
[Sc diur, vesp]
+0.3 -1.2 90 -6 -6 1001.6 999.0
12 16.09 З 5
{8}
20 км ясно -0.2 -2.1 87 -6 -6 1003.1 1000.5
15 16.09 З 3
{7}
20 км 1/1 600 м
[Sc]
-0.8 -2.7 87 -6 -6 1004.0 1001.3
18 16.09 СЗ 2
{6}
20 км 6/4 600 м
[Sc Ac trans]
-1.6 -3.8 85 -5 -5 1005.0 1002.4 -1.8
21 16.09 Ю 1
{3}
20 км 4/3 600 м
[Sc Ac trans]
+1.5 -1.9 78 -0 +1 1006.6 1003.9
00 17.09 З 5
{8}
20 км 8/6 600 м
[Sc Ac trans]
+2.7 -0.6 79 -3 -2 1007.8 1005.1
03 17.09 З 3
{9}
20 км 6/5 600 м
[Sc Ac trans]
+3.0 -1.2 74 -1 -0 1009.0 1006.4
06 17.09 З 3
{11}
20 км 6/5 600 м
[Sc Ac trans]
+1.4 -2.6 75 -3 -3 1010.3 1007.7 +3.4
09 17.09 З 4
{9}
20 км 4/4 600 м
[Sc]
-0.2 -3.4 79 -6 -6 1011.5 1008.8
12 17.09 СЗ 5
{8}
20 км 4/4 600 м
[Sc]
+0.1 -4.2 73 -6 -6 1011.8 1009.1
15 17.09 СЗ 5
{7}
20 км 3/3 600 м
[Sc]
-1.9 -4.7 81 -8 -8 1011.8 1009.1
18 17.09 СЗ 3
{6}
20 км 4/4 600 м
[Sc]
-2.3 -4.8 83 -7 -7 1011.9 1009.2 -2.9
21 17.09 Ю 1
{4}
20 км 9/8 600 м
[Sc Ac trans]
+0.2 -2.8 80 -2 -1 1012.3 1009.7
00 18.09 ЮЗ 3
{7}
20 км 9/5 600 м
[Sc Ac trans Ci fib]
+2.0 -0.8 82 -2 -2 1012.2 1009.6
03 18.09 ЮЗ 3
{6}
20 км 9/8 600 м
[Sc Ac trans]
+1.0 -0.6 89 -4 -3 1012.1 1009.5
06 18.09 З 3
{6}
20 км 9/6 600 м
[Sc Ac trans]
+0.2 -1.9 86 -4 -4 1012.4 1009.7 +2.3
09 18.09 СЗ 2
{6}
20 км 9/6 600 м
[Sc Ac trans]
-0.6 -3.1 83 -4 -4 1012.9 1010.2
12 18.09 СЗ 3
{4}
20 км 6/3 600 м
[Sc Ac trans]
-2.3 -4.6 84 -7 -7 1013.1 1010.4
15 18.09 СЗ 2
{5}
20 км 6/3 600 м
[Sc Ac trans]
-2.2 -5.0 81 -6 -6 1013.1 1010.4
18 18.09 СЗ 4
{6}
20 км 8/8 600 м
[Sc]
-1.3 -4.1 81 -7 -7 1013.6 1010.9 -2.5
21 18.09 З 3
{9}
20 км 3/3 600 м
[Sc]
+0.4 -4.0 72 -4 -3 1014.7 1012.0
00 19.09 СЗ 2
{6}
20 км 3/3 600 м
[Sc]
+0.8 -4.6 67 -2 -1 1015.0 1012.4
03 19.09 Ю 1
{5}
20 км 9/9 600 м
[Sc]
+0.9 -3.6 72 -1 -1 1015.7 1013.0
06 19.09 СЗ 3
{5}
20 км 10/10 600 м
[Sc]
+0.6 -4.6 68 -4 -4 1016.6 1013.9 +1.8
09 19.09 З 3
{5}
20 км 10/10 600 м
[Sc]
+0.4 -4.6 69 -4 -4 1017.2 1014.5
12 19.09 СЗ 4
{6}
20 км 10/10 600 м
[Sc]
+0.3 -4.8 69 -5 -5 1017.7 1015.0
15 19.09 З 1
{5}
20 км 10/10 600 м
[Sc]
-0.5 -2.6 86 -3 -3 1018.1 1015.4
18 19.09 З 2
{4}
20 км 10/10 600 м
[Sc]
-0.3 -3.7 78 -4 -4 1018.6 1015.9 -0.6

 

Местоположение метеостанции Остров Врангеля (Чукотка, Россия): широта 70.98 долгота -178.00 высота над уровнем моря 21 м.

В архиве по умолчанию представлена погода на Острове Врангеля за последнюю неделю. Архивные данные за месяц целиком и за предыдущие месяцы, начиная с января 2011 года, Вы можете получить, выбрав интересующий диапазон дат из раскрывающегося списка и нажав кнопку "Ввод!".

Внимание! Время в таблицах - всемирное. Для получения местного времени необходимо прибавить поправку, которая на Острове Врангеля равна 12 ч.

Смотрите также архив погоды в соседних городах и на ближайших метеорологических станциях:

Погода на Мысе Биллингс (Чукотка, Россия) (265 км)
Погода в Паляваам-Глубокой (Чукотка, Россия) (364 км)
Погода на Мысе Ванкарем (Чукотка, Россия) (369 км)
Погода в Комсомольской (Чукотка, Россия) (404 км)
Погода в Майской (Чукотка, Россия) (423 км)
Погода в Валькаркае (Чукотка, Россия) (423 км)
Погода в 21 км (Чукотка, Россия) (444 км)
Погода в Певеке (Чукотка, Россия) (463 км)
Погода в Чауне (Чукотка, Россия) (489 км)
Погода в Эгвекиноте (Чукотка, Россия) (517 км)

Пояснения к столбцам:

Ветер - указаны скорость ветра в м/с - средняя за 10 мин, порывы в срок и между сроками (в фигурных скобках) и направление, откуда дует ветер: С - северный, СВ - северо-восточный, В - восточный, ЮВ - юго-восточный, Ю - южный, ЮЗ - юго-западный, З - западный, СЗ - северо-западный.
Видимость - горизонтальная дальность видимости в метрах или километрах. При видимости от 1 до 10 км при отсутствии осадков обычно наблюдается дымка, при ухудшении видимости до 1 км и менее - туман. В сухую погоду видимость может ухудшаться дымом, пылью или мглою.
Явления - указаны атмосферные явления, наблюдавшиеся в срок или в последний час перед сроком; фигурными скобками обозначены явления, наблюдавшиеся между сроками (за 1-3 часа до срока); квадратными скобками обозначены град или гололедные отложения с указанием их диаметра в мм.
Облачность - указаны через наклонную черту общая и нижняя облачность в баллах и высота нижней границы облаков в метрах; квадратными скобками обозначены формы облаков: Ci - перистые, Cs - перисто-слоистые, Cc - перисто-кучевые, Ac - высококучевые, As - высокослоистые, Sc - слоисто-кучевые, Ns - слоисто-дождевые, Cu - кучевые, Cb - кучево-дождевые. Подробнее классификацию облаков см. в Атласе облаков (PDF).
T - Температура воздуха - температура, измеренная на высоте 2 м над землей.
Td - Температура точки росы - температура, при понижении до которой содержащийся в воздухе водяной пар достигнет насыщения.
f - Относительная влажность воздуха - влажноcть воздуха, измеренная на высоте 2 м над землей.
Te - Эффективная температура - температура, которую ощущает одетый по сезону человек в тени. Характеристика душности погоды. При расчете учитывается влияние влажности воздуха и скорости ветра на теплоощущения человека.
Tes - Эффективная температура на солнце - температура, которую ощущает человек, с поправкой на солнечный нагрев. Характеристика знойности погоды. Зависит от высоты солнца над горизонтом, облачности и скорости ветра. Ночью, в пасмурную погоду, а также при ветре 12 м/с и более поправка равна нулю.
P - Атмосферное давление - приведенное к уровню моря атмосферное давление.
Po - Атмосферное давление - измеренное на уровне метеостанции атмосферное давление.
Tmin - Минимальная температура - минимум температуры воздуха на высоте 2 м над землей.
Tmax - Максимальная температура - максимум температуры воздуха на высоте 2 м над землей.
R - Количество осадков - Количество выпавших осадков за период времени, мм. При наведении курсора мыши на число - период времени, за который выпало указанное количество осадков.
R24 - Количество осадков - Количество выпавших осадков за 24 часа, мм.
S - Снежный покров - Высота снежного покрова, см. При наведении курсора мыши на число - состояние снежного покрова и степень покрытия местности в баллах.